| time (UTC) | temp C | wind direction | speed KPH | gust KPH | rain 1hr cm | rain 24hr cm | rain mn cm | humidity % | barometer mb |
| 20260906231555 | 19 | 190 | 9.7 | 16.1 | 0.00 | 0.00 | 0.00 | 65 | 1015.0 |
| 20260906224549 | 19 | 190 | 6.4 | 14.5 | 0.00 | 0.00 | 0.00 | 66 | 1015.2 |
| 20260906223057 | 19 | 190 | 0.0 | 4.8 | 0.00 | 0.00 | 0.00 | 66 | 1015.6 |
| 20260906221550 | 20 | 190 | 1.6 | 6.4 | 0.00 | 0.00 | 0.00 | 65 | 1015.5 |
| 20260906220056 | 19 | 190 | 0.0 | 8.0 | 0.00 | 0.00 | 0.00 | 65 | 1015.5 |
| 20260906214554 | 20 | 190 | 1.6 | 4.8 | 0.00 | 0.00 | 0.00 | 65 | 1015.4 |
| 20260906213103 | 19 | 190 | 0.0 | 8.0 | 0.00 | 0.00 | 0.00 | 65 | 1015.4 |
| 20260906211558 | 19 | 190 | 1.6 | 6.4 | 0.00 | 0.00 | 0.00 | 65 | 1015.6 |
| 20260906210057 | 18 | 44 | 0.0 | 6.4 | 0.00 | 0.00 | 0.00 | 65 | 1015.7 |
| 20260906204641 | 18 | 44 | 1.6 | 4.8 | 0.00 | 0.00 | 0.00 | 65 | 1015.8 |
| 20260906203050 | 18 | 44 | 3.2 | 8.0 | 0.00 | 0.00 | 0.00 | 66 | 1016.0 |
| 20260906201634 | 18 | 190 | 0.0 | 1.6 | 0.00 | 0.00 | 0.00 | 66 | 1016.0 |
| 20260906200053 | 18 | 0 | 0.0 | 3.2 | 0.00 | 0.00 | 0.00 | 67 | 1016.1 |
| 20260906194557 | 18 | 45 | 0.0 | 4.8 | 0.00 | 0.00 | 0.00 | 67 | 1016.2 |
| 20260906193050 | 17 | 0 | 0.0 | 9.7 | 0.00 | 0.00 | 0.00 | 69 | 1016.2 |
| 20260906191547 | 17 | 44 | 6.4 | 12.9 | 0.00 | 0.00 | 0.00 | 70 | 1016.3 |
| 20260906190051 | 17 | 45 | 3.2 | 11.3 | 0.00 | 0.00 | 0.00 | 71 | 1016.4 |
| 20260906184549 | 17 | 44 | 3.2 | 9.7 | 0.00 | 0.00 | 0.00 | 73 | 1016.5 |
| 20260906183100 | 16 | 0 | 1.6 | 8.0 | 0.00 | 0.00 | 0.00 | 75 | 1016.8 |
| 20260906181556 | 16 | 44 | 3.2 | 14.5 | 0.00 | 0.00 | 0.00 | 76 | 1017.0 |
| 20260906180056 | 15 | 190 | 4.8 | 12.9 | 0.00 | 0.00 | 0.00 | 86 | 1016.4 |
| 20260906174604 | 13 | 190 | 1.6 | 8.0 | 0.00 | 0.00 | 0.00 | 91 | 1017.0 |
| 20260906173054 | 13 | 190 | 8.0 | 11.3 | 0.00 | 0.00 | 0.00 | 90 | 1018.0 |
| 20260906171551 | 13 | 190 | 6.4 | 9.7 | 0.00 | 0.00 | 0.00 | 87 | 1018.1 |
| 20260906170050 | 13 | 190 | 3.2 | 9.7 | 0.00 | 0.00 | 0.00 | 85 | 1018.1 |
| 20260906164546 | 13 | 190 | 4.8 | 8.0 | 0.00 | 0.00 | 0.00 | 86 | 1018.1 |
| 20260906163055 | 13 | 190 | 0.0 | 6.4 | 0.00 | 0.00 | 0.00 | 86 | 1018.3 |
| 20260906161551 | 13 | 190 | 1.6 | 11.3 | 0.00 | 0.00 | 0.00 | 86 | 1018.2 |
| 20260906160050 | 12 | 190 | 6.4 | 16.1 | 0.00 | 0.00 | 0.00 | 87 | 1018.3 |
| 20260906154558 | 12 | 190 | 9.7 | 19.3 | 0.00 | 0.00 | 0.00 | 85 | 1018.4 |
| 20260906153107 | 13 | 190 | 9.7 | 19.3 | 0.00 | 0.00 | 0.00 | 84 | 1018.5 |
| 20260906151550 | 14 | 190 | 11.3 | 19.3 | 0.00 | 0.00 | 0.00 | 82 | 1018.8 |
| 20260906150057 | 15 | 190 | 4.8 | 16.1 | 0.00 | 0.00 | 0.00 | 80 | 1018.9 |
| 20260906144559 | 16 | 0 | 0.0 | 0.0 | 0.00 | 0.03 | 0.00 | 81 | 1019.1 |
| 20260906143050 | 16 | 0 | 0.0 | 3.2 | 0.00 | 0.03 | 0.00 | 81 | 1019.0 |
| 20260906141547 | 15 | 190 | 3.2 | 17.7 | 0.00 | 0.03 | 0.00 | 81 | 1018.2 |
| 20260906140056 | 15 | 45 | 6.4 | 11.3 | 0.00 | 0.03 | 0.00 | 82 | 1018.1 |
| 20260906134559 | 15 | 44 | 0.0 | 14.5 | 0.00 | 0.05 | 0.00 | 83 | 1018.6 |
| 20260906133054 | 15 | 44 | 8.0 | 14.5 | 0.00 | 0.05 | 0.00 | 83 | 1018.2 |
| 20260906131547 | 15 | 44 | 3.2 | 6.4 | 0.00 | 0.05 | 0.00 | 83 | 1018.3 |
| 20260906130103 | 14 | 0 | 0.0 | 4.8 | 0.00 | 0.05 | 0.00 | 84 | 1018.5 |
| 20260906124550 | 14 | 0 | 0.0 | 1.6 | 0.00 | 0.05 | 0.00 | 84 | 1018.8 |
| 20260906123050 | 14 | 190 | 0.0 | 9.7 | 0.00 | 0.05 | 0.00 | 84 | 1018.7 |
| 20260906121602 | 13 | 190 | 1.6 | 8.0 | 0.00 | 0.05 | 0.00 | 84 | 1018.1 |
| 20260906120054 | 13 | 190 | 1.6 | 8.0 | 0.00 | 0.05 | 0.00 | 84 | 1018.2 |
| 20260906114603 | 13 | 190 | 0.0 | 8.0 | 0.00 | 0.05 | 0.00 | 84 | 1018.2 |
| 20260906113050 | 13 | 190 | 1.6 | 8.0 | 0.00 | 0.05 | 0.00 | 84 | 1018.2 |
| 20260906111621 | 13 | 190 | 3.2 | 14.5 | 0.00 | 0.05 | 0.00 | 84 | 1018.2 |
| 20260906110051 | 13 | 190 | 1.6 | 9.7 | 0.00 | 0.05 | 0.00 | 85 | 1018.4 |
| 20260906104548 | 13 | 190 | 0.0 | 8.0 | 0.00 | 0.05 | 0.00 | 84 | 1018.6 |
| 20260906103053 | 13 | 0 | 0.0 | 8.0 | 0.00 | 0.05 | 0.00 | 85 | 1018.5 |
| 20260906101550 | 13 | 190 | 1.6 | 8.0 | 0.00 | 0.05 | 0.00 | 85 | 1018.6 |
| 20260906100049 | 13 | 190 | 3.2 | 8.0 | 0.00 | 0.05 | 0.00 | 84 | 1018.7 |
| 20260906094558 | 13 | 190 | 1.6 | 11.3 | 0.00 | 0.05 | 0.00 | 83 | 1018.5 |
| 20260906093101 | 13 | 190 | 3.2 | 9.7 | 0.00 | 0.05 | 0.00 | 82 | 1018.4 |
| 20260906091550 | 14 | 0 | 1.6 | 8.0 | 0.00 | 0.05 | 0.00 | 81 | 1018.7 |
| 20260906090057 | 14 | 224 | 3.2 | 9.7 | 0.00 | 0.05 | 0.00 | 81 | 1018.8 |
| 20260906084554 | 14 | 190 | 3.2 | 6.4 | 0.00 | 0.05 | 0.00 | 80 | 1018.9 |
| 20260906083053 | 14 | 190 | 1.6 | 11.3 | 0.00 | 0.05 | 0.00 | 80 | 1019.1 |
| 20260906081554 | 14 | 190 | 1.6 | 17.7 | 0.00 | 0.05 | 0.00 | 80 | 1019.3 |
| 20260906080054 | 14 | 190 | 3.2 | 8.0 | 0.00 | 0.05 | 0.00 | 80 | 1019.5 |
| 20260906074547 | 13 | 190 | 1.6 | 8.0 | 0.00 | 0.05 | 0.00 | 81 | 1019.5 |
| 20260906073101 | 13 | 190 | 1.6 | 6.4 | 0.00 | 0.05 | 0.00 | 81 | 1019.4 |
| 20260906071552 | 13 | 190 | 0.0 | 3.2 | 0.00 | 0.05 | 0.00 | 81 | 1019.6 |
| 20260906070127 | 14 | 190 | 0.0 | 8.0 | 0.00 | 0.05 | 0.00 | 80 | 1019.7 |
| 20260906064552 | 14 | 190 | 1.6 | 9.7 | 0.00 | 0.05 | 0.00 | 79 | 1020.1 |
| 20260906063052 | 15 | 190 | 1.6 | 11.3 | 0.00 | 0.05 | 0.00 | 77 | 1020.3 |
| 20260906061602 | 15 | 190 | 4.8 | 9.7 | 0.00 | 0.05 | 0.00 | 77 | 1020.2 |
| 20260906060048 | 15 | 190 | 1.6 | 9.7 | 0.00 | 0.05 | 0.00 | 77 | 1019.9 |
| 20260906054553 | 15 | 190 | 3.2 | 12.9 | 0.00 | 0.05 | 0.05 | 76 | 1019.7 |
| 20260906053051 | 15 | 190 | 3.2 | 16.1 | 0.00 | 0.05 | 0.05 | 74 | 1019.4 |
| 20260906051553 | 15 | 190 | 3.2 | 14.5 | 0.00 | 0.05 | 0.05 | 73 | 1019.3 |
| 20260906050108 | 15 | 190 | 3.2 | 9.7 | 0.00 | 0.05 | 0.05 | 72 | 1019.3 |
| 20260906044549 | 15 | 190 | 3.2 | 9.7 | 0.00 | 0.05 | 0.05 | 70 | 1019.3 |
| 20260906043101 | 15 | 190 | 3.2 | 11.3 | 0.00 | 0.05 | 0.05 | 69 | 1019.8 |
| 20260906041550 | 15 | 190 | 4.8 | 17.7 | 0.00 | 0.05 | 0.05 | 68 | 1018.6 |
| 20260906040110 | 15 | 190 | 4.8 | 17.7 | 0.00 | 0.05 | 0.05 | 68 | 1018.3 |
| 20260906034548 | 15 | 190 | 3.2 | 9.7 | 0.00 | 0.05 | 0.05 | 68 | 1018.7 |
| 20260906033057 | 16 | 190 | 3.2 | 9.7 | 0.00 | 0.05 | 0.05 | 67 | 1018.8 |
| 20260906031551 | 16 | 44 | 3.2 | 11.3 | 0.00 | 0.05 | 0.05 | 65 | 1018.9 |
| 20260906030050 | 16 | 190 | 4.8 | 16.1 | 0.00 | 0.05 | 0.05 | 65 | 1018.7 |
| 20260906024557 | 16 | 190 | 4.8 | 14.5 | 0.00 | 0.05 | 0.05 | 64 | 1017.6 |
| 20260906023105 | 16 | 190 | 6.4 | 16.1 | 0.00 | 0.05 | 0.05 | 64 | 1017.5 |
| 20260906021550 | 17 | 44 | 3.2 | 16.1 | 0.00 | 0.05 | 0.05 | 62 | 1017.6 |
| 20260906020058 | 17 | 45 | 4.8 | 12.9 | 0.00 | 0.05 | 0.05 | 59 | 1017.5 |
| 20260906014613 | 18 | 190 | 4.8 | 12.9 | 0.00 | 0.05 | 0.05 | 56 | 1017.5 |
| 20260906013050 | 18 | 190 | 3.2 | 11.3 | 0.00 | 0.05 | 0.05 | 54 | 1017.4 |
| 20260906011555 | 20 | 190 | 4.8 | 17.7 | 0.00 | 0.05 | 0.05 | 52 | 1017.4 |
| 20260906010047 | 21 | 190 | 4.8 | 12.9 | 0.00 | 0.05 | 0.05 | 48 | 1017.4 |
| 20260906004607 | 21 | 190 | 3.2 | 12.9 | 0.00 | 0.05 | 0.05 | 46 | 1017.6 |
| 20260906003056 | 22 | 190 | 4.8 | 12.9 | 0.00 | 0.05 | 0.05 | 42 | 1017.3 |
| 20260906001550 | 23 | 190 | 3.2 | 11.3 | 0.00 | 0.05 | 0.05 | 39 | 1017.3 |
| 20260906000052 | 23 | 44 | 3.2 | 12.9 | 0.00 | 0.05 | 0.05 | 35 | 1017.4 |
| 20260905234557 | 24 | 190 | 3.2 | 6.4 | 0.00 | 0.05 | 0.05 | 37 | 1017.4 |
| 20260905233055 | 23 | 0 | 0.0 | 4.8 | 0.00 | 0.05 | 0.05 | 35 | 1017.7 |